Погода в Чувашском Сускане

Россия / Ульяновская область     53°52′56″N   49°12′21″E
темп.,
°C
ветер,
м/с
пор.,
м/с
влажн.,
%
обл.,
%
осадки,
мм/ч
давл.,
гПа
погр.,
м
17 июня, чт
чт1701:00+17ссз611945 1.4 1009238
04:00+17ссз7119537 1.5 1012284
07:00+16ссз7118872 0.0 1014404
10:00+18с711621 0.0 1016500
13:00+19с79540 0.0 1017711
16:00+20ссз58580 0.0 1018836
19:00+19ссз610680 0.0 1018267
22:00+16ссз510760 0.0 1020152
18 июня, пт
пт1801:00+14ссз511760 0.0 1021174
04:00+13с510773 0.0 1023205
07:00+14с59740 0.0 1024356
10:00+17с57540 0.0 1025660
13:00+18ссз57525 0.0 1025800
16:00+19с67540 0.0 1025739
19:00+18ссв35666 0.0 1026133
22:00+15ссв337480 0.0 102717
19 июня, сб
сб1901:00+13с227749 0.0 102715
04:00+13сз11771 0.0 102817
07:00+15зсз12721 0.0 102977
10:00+18зюз23645 0.0 1028300
13:00+19зюз236038 0.0 1027424
16:00+21зюз34615 0.0 1026476
19:00+22з34690 0.0 1024113
22:00+19з46820 0.0 102461
20 июня, вс
вс2001:00+17зсз46900 0.0 102467
04:00+16зсз47920 0.0 102497
07:00+18зсз47870 0.0 1025137
10:00+21сз46760 0.0 1024293
13:00+24сз46670 0.0 1023621
16:00+24сз45650 0.0 1022691
19:00+24ссз34730 0.0 102287
22:00+21сз23800 0.0 102211
21 июня, пн
пн2101:00+19сз33860 0.0 102216
04:00+18сз33920 0.0 102220
07:00+19сз23860 0.0 102387
10:00+22зсз2375100 0.0 1022317
13:00+24з2365100 0.0 1021548
16:00+25зсз346092 0.0 1020654
19:00+24ссз23704 0.0 102059
22:00+21зсз33764 0.0 102015